Mount Laurel, NJ

9:54 AM EST on February 19, 2017 (GMT -0500)
South Jersey Regional

Weather History for KVAY - June, 2013

Change the Weather History Date:

Sunday, June 2, 2013

  Actual Average (KPNE) Record (KPNE)
Temperature  
Mean Temperature 80 °F -  
Max Temperature 90 °F 73 °F 89 °F (2007)
Min Temperature 70 °F 54 °F 48 °F (2003)
Cooling Degree Days 15    
Growing Degree Days 30 (Base 50)    
Moisture  
Dew Point 66 °F    
Average Humidity 65    
Maximum Humidity 87    
Minimum Humidity 45    
Precipitation  
Precipitation 0.00 in - - ()
Sea Level Pressure  
Sea Level Pressure 29.86 in    
Wind  
Wind Speed 6 mph (SW)    
Max Wind Speed 15 mph    
Max Gust Speed 26 mph    
Visibility 10 miles    
Events Rain    
Averages and records for this station are not official NWS values.
T = Trace of Precipitation, MM = Missing Value Source: NWS Daily Summary

Daily Weather History Graph

Daily Weather History Graph

Search for Another Location

Airport or City:

Trip Planner

Search our weather history database for the weather conditions in past years. The results will help you decide how hot, cold, wet, or windy it might be!

Date:

Astronomy

Jun. 02, 2013 Rise Set
Actual Time 5:32 AM EDT 8:22 PM EDT
Civil Twilight 5:00 AM EDT 8:55 PM EDT
Nautical Twilight 4:19 AM EDT 9:35 PM EDT
Astronomical Twilight 3:33 AM EDT 10:22 PM EDT
Moon 1:57 AM EDT (6/2) 2:51 PM EDT (6/2)
Length of Visible Light 15h 54m
Length of Day
14h 50m
Waning Crescent, 31% of the Moon is Illuminated
Jun 2
Waning Crescent
Jun 8
New
Jun 16
First Quarter
Jun 23
Full
Jun 30
Last Quarter

Hourly Weather History & Observations

Time (EDT) Temp. Heat Index Dew Point Humidity Pressure Visibility Wind Dir Wind Speed Gust Speed Precip Events Conditions
12:54 AM 75.0 °F - 66.0 °F 73% 29.92 in 10.0 mi Variable 4.6 mph - N/A   Clear
1:54 AM 75.0 °F - 64.9 °F 71% 29.92 in 10.0 mi Variable 3.5 mph - N/A   Clear
2:54 AM 73.9 °F - 66.0 °F 76% 29.90 in 10.0 mi Variable 4.6 mph - N/A   Clear
3:54 AM 73.0 °F - 66.9 °F 81% 29.90 in 10.0 mi Variable 4.6 mph - N/A   Clear
4:54 AM 73.0 °F - 66.9 °F 81% 29.89 in 10.0 mi Variable 4.6 mph - N/A   Clear
5:54 AM 73.0 °F - 66.0 °F 79% 29.88 in 10.0 mi Variable 4.6 mph - N/A   Clear
6:54 AM 75.0 °F - 66.0 °F 73% 29.89 in 10.0 mi Variable 4.6 mph - N/A   Clear
7:54 AM 77.0 °F - 66.0 °F 69% 29.89 in 10.0 mi SW 8.1 mph - N/A   Clear
8:54 AM 80.1 °F 82.1 °F 66.0 °F 62% 29.88 in 10.0 mi SW 9.2 mph 17.3 mph N/A   Clear
9:54 AM 81.0 °F 83.0 °F 66.0 °F 60% 29.87 in 10.0 mi SW 8.1 mph 23.0 mph N/A   Partly Cloudy
10:54 AM 82.9 °F 85.0 °F 66.0 °F 56% 29.87 in 10.0 mi SW 10.4 mph 19.6 mph N/A   Partly Cloudy
11:54 AM 86.0 °F 88.8 °F 66.9 °F 53% 29.87 in 10.0 mi SSW 6.9 mph 18.4 mph N/A   Scattered Clouds
12:54 PM 88.0 °F 90.3 °F 66.0 °F 48% 29.86 in 10.0 mi SW 9.2 mph 20.7 mph N/A   Partly Cloudy
1:54 PM 90.0 °F 92.4 °F 66.0 °F 45% 29.84 in 10.0 mi SW 9.2 mph 21.9 mph N/A   Mostly Cloudy
2:54 PM 88.0 °F 89.6 °F 64.9 °F 46% 29.83 in 10.0 mi WSW 15.0 mph 19.6 mph N/A   Scattered Clouds
3:54 PM 87.1 °F 88.3 °F 64.0 °F 46% 29.83 in 10.0 mi WSW 9.2 mph - 0.00 in   Mostly Cloudy
4:54 PM 84.9 °F 87.6 °F 66.9 °F 55% 29.82 in 10.0 mi SW 8.1 mph - N/A   Clear
5:54 PM 84.9 °F 87.1 °F 66.0 °F 53% 29.81 in 10.0 mi SW 9.2 mph 16.1 mph N/A   Partly Cloudy
6:54 PM 84.0 °F 86.5 °F 66.9 °F 56% 29.81 in 10.0 mi SW 8.1 mph - N/A   Clear
7:54 PM 82.9 °F 85.4 °F 66.9 °F 58% 29.81 in 10.0 mi SW 6.9 mph - N/A   Partly Cloudy
8:54 PM 81.0 °F 83.8 °F 68.0 °F 65% 29.83 in 10.0 mi Variable 4.6 mph - N/A   Overcast
9:54 PM 71.1 °F - 66.9 °F 87% 29.87 in 7.0 mi SSW 9.2 mph 26.5 mph 0.00 in Rain Light Rain
10:54 PM 70.0 °F - 66.0 °F 87% 29.87 in 10.0 mi SSW 4.6 mph - 0.00 in   Overcast
11:54 PM 70.0 °F - 66.0 °F 87% 29.86 in 10.0 mi Calm Calm - N/A   Scattered Clouds